Location: Sungai Ketit
(2.6833°N, 113.2333°E)
Time: 10:30:39
(UTC+00:00)

Cosmos-2242 - Pass Details

Date: 25 May 2025
Orbit: 569 x 594 km, 82.5° (Epoch: 19 June)

Event Time Altitude Azimuth Distance (km) Brightness Sun altitude
Exits shadow 12:17:50 28° 16° (NNE) 1,111 4.4 -25.3°
Drops below altitude 10° 12:19:56 10° 10° (N) 1,920 5.7 -25.8°
Sets 12:22:08 0° 8° (N) 2,818 6.7 -26.3°
